TimeEST,TemperatureF,Dew PointF,Humidity,Sea Level PressureIn,VisibilityMPH,Wind Direction,Wind SpeedMPH,Gust SpeedMPH,PrecipitationIn,Events,Conditions,WindDirDegrees,DateUTC
12:15 AM,19.4,10.2,68,30.45,10.0,Calm,Calm,-,N/A,,Clear,0,2014-01-08 05:15:00
12:35 AM,20.1,10.2,66,30.46,10.0,NW,3.5,-,N/A,,Clear,320,2014-01-08 05:35:00
12:55 AM,20.1,10.2,66,30.45,10.0,Calm,Calm,-,N/A,,Clear,0,2014-01-08 05:55:00
1:15 AM,19.4,10.8,69,30.44,10.0,NNW,3.5,-,N/A,,Clear,330,2014-01-08 06:15:00
1:35 AM,19.0,10.8,70,30.44,10.0,Calm,Calm,-,N/A,,Clear,0,2014-01-08 06:35:00
1:55 AM,18.1,12.6,79,30.45,10.0,Calm,Calm,-,N/A,,Clear,0,2014-01-08 06:55:00
2:15 AM,18.0,13.1,81,30.45,10.0,Calm,Calm,-,N/A,,Clear,0,2014-01-08 07:15:00
2:35 AM,18.5,12.9,79,30.45,10.0,Calm,Calm,-,N/A,,Clear,0,2014-01-08 07:35:00
2:55 AM,19.4,11.3,71,30.45,10.0,Calm,Calm,-,N/A,,Clear,0,2014-01-08 07:55:00
3:15 AM,18.3,12.4,78,30.45,10.0,Calm,Calm,-,N/A,,Clear,0,2014-01-08 08:15:00
3:35 AM,18.1,13.3,81,30.46,10.0,Calm,Calm,-,N/A,,Clear,0,2014-01-08 08:35:00
3:55 AM,18.3,13.5,81,30.46,10.0,Calm,Calm,-,N/A,,Clear,0,2014-01-08 08:55:00
4:15 AM,18.9,12.0,75,30.46,10.0,Calm,Calm,-,N/A,,Clear,0,2014-01-08 09:15:00
4:35 AM,18.3,12.2,77,30.45,10.0,Calm,Calm,-,N/A,,Clear,0,2014-01-08 09:35:00
4:55 AM,17.2,12.7,83,30.45,10.0,Calm,Calm,-,N/A,,Clear,0,2014-01-08 09:55:00
5:15 AM,16.3,13.5,88,30.45,10.0,Calm,Calm,-,N/A,,Clear,0,2014-01-08 10:15:00
5:35 AM,18.0,12.4,79,30.45,10.0,Calm,Calm,-,N/A,,Clear,0,2014-01-08 10:35:00
5:55 AM,18.1,12.0,77,30.45,10.0,Calm,Calm,-,N/A,,Clear,0,2014-01-08 10:55:00
6:15 AM,17.4,13.3,84,30.45,10.0,Calm,Calm,-,N/A,,Clear,0,2014-01-08 11:15:00
6:35 AM,16.7,13.5,87,30.46,10.0,Calm,Calm,-,N/A,,Clear,0,2014-01-08 11:35:00
6:55 AM,16.7,13.5,87,30.47,10.0,Calm,Calm,-,N/A,,Clear,0,2014-01-08 11:55:00
7:15 AM,16.5,13.8,89,30.47,10.0,Calm,Calm,-,N/A,,Clear,0,2014-01-08 12:15:00
7:35 AM,16.3,14.0,90,30.48,10.0,Calm,Calm,-,N/A,,Clear,0,2014-01-08 12:35:00
7:55 AM,17.4,14.2,87,30.49,10.0,Calm,Calm,-,N/A,,Clear,0,2014-01-08 12:55:00
8:15 AM,19.4,14.5,81,30.50,10.0,Calm,Calm,-,N/A,,Clear,0,2014-01-08 13:15:00
8:35 AM,20.3,15.8,83,30.50,10.0,Calm,Calm,-,N/A,,Clear,0,2014-01-08 13:35:00
8:55 AM,22.6,14.0,69,30.51,10.0,Calm,Calm,-,N/A,,Clear,0,2014-01-08 13:55:00
9:15 AM,25.5,14.7,64,30.52,10.0,Calm,Calm,-,N/A,,Clear,0,2014-01-08 14:15:00
9:35 AM,27.9,14.2,57,30.52,10.0,Calm,Calm,-,N/A,,Clear,0,2014-01-08 14:35:00
9:55 AM,30.9,11.3,44,30.53,10.0,Calm,Calm,-,N/A,,Clear,0,2014-01-08 14:55:00
10:15 AM,32.2,11.5,42,30.53,10.0,Calm,Calm,-,N/A,,Clear,0,2014-01-08 15:15:00
10:35 AM,34.0,14.4,45,30.52,10.0,Calm,Calm,-,N/A,,Clear,0,2014-01-08 15:35:00
10:55 AM,35.2,14.4,42,30.52,10.0,Calm,Calm,-,N/A,,Clear,0,2014-01-08 15:55:00
11:15 AM,36.9,12.2,36,30.52,10.0,Calm,Calm,-,N/A,,Clear,0,2014-01-08 16:15:00
11:35 AM,37.9,11.8,34,30.51,10.0,ESE,3.5,-,N/A,,Clear,110,2014-01-08 16:35:00
11:55 AM,40.3,12.0,32,30.51,10.0,East,3.5,-,N/A,,Clear,90,2014-01-08 16:55:00
12:15 PM,40.8,10.8,29,30.49,10.0,Calm,Calm,-,N/A,,Clear,0,2014-01-08 17:15:00
12:35 PM,42.3,11.5,29,30.47,10.0,East,3.5,-,N/A,,Clear,80,2014-01-08 17:35:00
12:55 PM,43.9,11.3,27,30.46,10.0,Calm,Calm,-,N/A,,Clear,0,2014-01-08 17:55:00
1:15 PM,44.8,12.2,27,30.45,10.0,East,3.5,-,N/A,,Clear,80,2014-01-08 18:15:00
1:35 PM,44.6,12.7,28,30.44,10.0,South,3.5,-,N/A,,Clear,190,2014-01-08 18:35:00
1:55 PM,46.6,14.4,27,30.43,10.0,SE,3.5,-,N/A,,Clear,130,2014-01-08 18:55:00
2:15 PM,46.4,13.6,27,30.44,10.0,Calm,Calm,-,N/A,,Clear,0,2014-01-08 19:15:00
2:35 PM,47.7,14.4,26,30.45,10.0,South,3.5,-,N/A,,Clear,180,2014-01-08 19:35:00
2:55 PM,47.7,14.0,26,30.44,10.0,SSE,3.5,-,N/A,,Clear,150,2014-01-08 19:55:00
3:15 PM,47.5,13.5,26,30.44,10.0,SE,3.5,-,N/A,,Clear,130,2014-01-08 20:15:00
3:35 PM,47.5,13.6,26,30.44,10.0,SE,4.6,-,N/A,,Clear,130,2014-01-08 20:35:00
3:55 PM,48.0,12.9,24,30.44,10.0,Calm,Calm,-,N/A,,Clear,0,2014-01-08 20:55:00
4:15 PM,47.5,13.1,25,30.44,10.0,Calm,Calm,-,N/A,,Clear,0,2014-01-08 21:15:00
4:35 PM,47.5,13.6,26,30.44,10.0,Calm,Calm,-,N/A,,Clear,0,2014-01-08 21:35:00
4:55 PM,46.8,14.0,27,30.44,10.0,Calm,Calm,-,N/A,,Clear,0,2014-01-08 21:55:00
5:15 PM,44.6,12.9,28,30.44,10.0,ESE,3.5,-,N/A,,Clear,120,2014-01-08 22:15:00
5:35 PM,42.8,14.7,32,30.44,10.0,Calm,Calm,-,N/A,,Clear,0,2014-01-08 22:35:00
5:55 PM,41.4,15.4,35,30.44,10.0,Calm,Calm,-,N/A,,Clear,0,2014-01-08 22:55:00
6:15 PM,40.3,14.2,35,30.45,10.0,Calm,Calm,-,N/A,,Clear,0,2014-01-08 23:15:00
6:35 PM,38.3,16.2,41,30.46,10.0,Calm,Calm,-,N/A,,Clear,0,2014-01-08 23:35:00
6:55 PM,36.7,16.0,43,30.46,10.0,Calm,Calm,-,N/A,,Clear,0,2014-01-08 23:55:00
7:15 PM,35.2,16.7,47,30.46,10.0,Calm,Calm,-,N/A,,Clear,0,2014-01-09 00:15:00
7:35 PM,35.1,16.9,48,30.47,10.0,Calm,Calm,-,N/A,,Clear,0,2014-01-09 00:35:00
7:55 PM,34.0,18.7,54,30.48,10.0,Calm,Calm,-,N/A,,Clear,0,2014-01-09 00:55:00
8:15 PM,34.0,19.2,55,30.48,10.0,Calm,Calm,-,N/A,,Clear,0,2014-01-09 01:15:00
8:35 PM,33.1,19.4,57,30.48,10.0,Calm,Calm,-,N/A,,Clear,0,2014-01-09 01:35:00
8:55 PM,32.4,19.2,58,30.49,10.0,Calm,Calm,-,N/A,,Clear,0,2014-01-09 01:55:00
9:15 PM,30.7,21.7,69,30.49,10.0,Calm,Calm,-,N/A,,Clear,0,2014-01-09 02:15:00
9:35 PM,31.5,19.9,62,30.50,10.0,Calm,Calm,-,N/A,,Clear,0,2014-01-09 02:35:00
9:55 PM,30.7,21.2,68,30.49,10.0,Calm,Calm,-,N/A,,Clear,0,2014-01-09 02:55:00
10:15 PM,30.0,21.6,71,30.50,10.0,Calm,Calm,-,N/A,,Clear,0,2014-01-09 03:15:00
10:35 PM,29.8,20.8,69,30.49,10.0,Calm,Calm,-,N/A,,Clear,0,2014-01-09 03:35:00
10:55 PM,30.9,19.0,61,30.49,10.0,Calm,Calm,-,N/A,,Clear,0,2014-01-09 03:55:00
11:15 PM,30.0,19.2,64,30.49,10.0,Calm,Calm,-,N/A,,Clear,0,2014-01-09 04:15:00
11:35 PM,30.7,20.3,65,30.49,10.0,North,3.5,-,N/A,,Clear,350,2014-01-09 04:35:00
11:55 PM,30.4,19.8,65,30.48,10.0,Calm,Calm,-,N/A,,Clear,0,2014-01-09 04:55:00